Weather History for Carmi, IL

Change the Weather History Date:

Friday, April 19, 2013

  Actual Average (KEVV) Record (KEVV)
Temperature  
Mean Temperature 44 °F 57 °F  
Max Temperature 50 °F 69 °F 86 °F (1971)
Min Temperature 40 °F 46 °F 27 °F (1983)
Degree Days  
Heating Degree Days 20 9  
Month to date heating degree days 214  
Since 1 July heating degree days 4380  
Cooling Degree Days 0 1  
Month to date cooling degree days 11  
Year to date cooling degree days 14  
Moisture  
Dew Point 34 °F    
Average Humidity 67    
Maximum Humidity 93    
Minimum Humidity 51    
Precipitation  
Precipitation 0.05 in 0.16 in 2.01 in (1909)
Month to date precipitation 2.63  
Year to date precipitation 13.14  
Snow  
Snow 0.00 in 0.00 in 0.00 in (2002)
Month to date snowfall 0.1  
Since 1 July snowfall 11.8  
Snow Depth -    
Sea Level Pressure  
Sea Level Pressure 29.90 in    
Wind  
Wind Speed 15 mph (WSW)    
Max Wind Speed 23 mph    
Max Gust Speed 31 mph    
Visibility 10 miles    
Events Rain    
T = Trace of Precipitation, MM = Missing Value Source: NWS Daily Summary

Daily Weather History Graph

Daily Weather History Graph

Search for Another Location

Airport:

Trip Planner

Search our weather history database for the weather conditions in past years. The results will help you decide how hot, cold, wet, or windy it might be!

Date:

Astronomy

Apr. 19, 2013 Rise Set
Actual Time 6:11 AM CDT 7:32 PM CDT
Civil Twilight 5:43 AM CDT 8:00 PM CDT
Nautical Twilight 5:10 AM CDT 8:33 PM CDT
Astronomical Twilight 4:36 AM CDT 9:07 PM CDT
Moon 1:22 PM CDT (4/19) 2:20 AM CDT (4/19)
Length of Visible Light 14h 16m
Length of Day
13h 21m
First Quarter, 62% of the Moon is Illuminated
Apr 19
First Quarter
Apr 25
Full
May 2
Last Quarter
May 9
New
May 17
First Quarter

Hourly Weather History & Observations

Time (CDT) Temp. Windchill Dew Point Humidity Pressure Visibility Wind Dir Wind Speed Gust Speed Precip Events Conditions
12:15 AM 45.7 °F 39.1 °F 43.7 °F 93% 29.69 in 5.0 mi NW 15.0 mph 24.2 mph 0.03 in Rain Rain
12:35 AM 45.1 °F 37.9 °F 42.4 °F 90% 29.71 in 10.0 mi WNW 17.3 mph 26.5 mph 0.04 in   Drizzle
12:55 AM 44.6 °F 36.9 °F 40.8 °F 87% 29.72 in 10.0 mi WNW 18.4 mph 27.6 mph 0.05 in Rain Light Rain
1:15 AM 45.0 °F 38.2 °F 40.8 °F 85% 29.72 in 10.0 mi WNW 15.0 mph 21.9 mph N/A Rain Light Rain
1:35 AM 44.8 °F 36.6 °F 39.2 °F 81% 29.74 in 10.0 mi West 20.7 mph 25.3 mph N/A   Overcast
1:55 AM 44.4 °F 36.6 °F 37.6 °F 77% 29.73 in 10.0 mi West 18.4 mph 28.8 mph N/A   Overcast
2:15 AM 44.2 °F 36.2 °F 37.4 °F 77% 29.72 in 10.0 mi WNW 19.6 mph 26.5 mph N/A   Mostly Cloudy
2:35 AM 44.6 °F 36.4 °F 36.5 °F 73% 29.74 in 10.0 mi West 20.7 mph 28.8 mph N/A   Mostly Cloudy
2:55 AM 44.2 °F 37.0 °F 36.7 °F 75% 29.75 in 10.0 mi WNW 16.1 mph 26.5 mph N/A   Overcast
3:15 AM 44.1 °F 36.2 °F 36.1 °F 74% 29.75 in 10.0 mi West 18.4 mph - N/A   Overcast
3:35 AM 43.9 °F 35.7 °F 35.1 °F 71% 29.76 in 10.0 mi WNW 19.6 mph 29.9 mph N/A   Overcast
3:55 AM 43.7 °F 35.0 °F 35.6 °F 73% 29.77 in 10.0 mi West 21.9 mph 27.6 mph N/A   Overcast
4:15 AM 43.0 °F 35.4 °F 33.4 °F 69% 29.78 in 10.0 mi West 16.1 mph 31.1 mph N/A   Overcast
4:35 AM 42.8 °F 35.8 °F 33.1 °F 69% 29.79 in 10.0 mi West 13.8 mph 26.5 mph N/A   Overcast
4:55 AM 42.6 °F 35.6 °F 33.4 °F 70% 29.79 in 10.0 mi West 13.8 mph 23.0 mph N/A   Overcast
5:15 AM 42.4 °F 36.1 °F 34.3 °F 73% 29.79 in 10.0 mi West 11.5 mph - N/A   Overcast
5:35 AM 42.8 °F 34.3 °F 33.8 °F 70% 29.80 in 10.0 mi West 19.6 mph 24.2 mph N/A   Overcast
5:55 AM 42.8 °F 34.5 °F 32.0 °F 66% 29.80 in 10.0 mi West 18.4 mph 24.2 mph N/A   Overcast
6:15 AM 42.4 °F 35.3 °F 32.4 °F 68% 29.81 in 10.0 mi West 13.8 mph - N/A   Overcast
6:35 AM 42.3 °F 36.3 °F 33.6 °F 71% 29.82 in 10.0 mi West 10.4 mph - N/A   Overcast
6:55 AM 42.6 °F 35.9 °F 33.1 °F 69% 29.83 in 10.0 mi West 12.7 mph 16.1 mph N/A   Overcast
7:15 AM 42.4 °F 38.1 °F 34.3 °F 73% 29.84 in 10.0 mi West 6.9 mph - N/A   Overcast
7:35 AM 42.8 °F 35.4 °F 33.1 °F 69% 29.86 in 10.0 mi WSW 15.0 mph - N/A   Overcast
7:55 AM 42.8 °F 34.8 °F 31.8 °F 65% 29.87 in 10.0 mi WSW 17.3 mph 26.5 mph N/A   Overcast
8:15 AM 43.0 °F 35.1 °F 31.3 °F 63% 29.87 in 10.0 mi WSW 17.3 mph 25.3 mph N/A   Overcast
8:35 AM 43.9 °F 35.0 °F 30.2 °F 59% 29.87 in 10.0 mi WSW 23.0 mph 31.1 mph N/A   Overcast
8:55 AM 43.2 °F 34.0 °F 30.0 °F 60% 29.89 in 10.0 mi West 23.0 mph 31.1 mph N/A   Overcast
9:15 AM 43.9 °F 35.9 °F 30.9 °F 60% 29.88 in 10.0 mi West 18.4 mph 26.5 mph N/A   Overcast
9:35 AM 45.0 °F 36.6 °F 31.5 °F 59% 29.88 in 10.0 mi WNW 21.9 mph 28.8 mph N/A   Mostly Cloudy
9:55 AM 44.8 °F 36.6 °F 30.9 °F 58% 29.88 in 10.0 mi West 20.7 mph 26.5 mph N/A   Overcast
10:35 AM 43.9 °F 36.8 °F 32.0 °F 63% 29.89 in 10.0 mi WSW 15.0 mph 24.2 mph N/A   Overcast
10:55 AM 43.7 °F 36.6 °F 31.8 °F 63% 29.90 in 10.0 mi West 15.0 mph - N/A   Overcast
11:15 AM 43.9 °F 37.9 °F 32.9 °F 65% 29.91 in 10.0 mi West 11.5 mph - N/A   Overcast
11:35 AM 43.9 °F 37.9 °F 33.6 °F 67% 29.91 in 10.0 mi WSW 11.5 mph - N/A   Overcast
11:55 AM 44.2 °F 37.3 °F 33.4 °F 66% 29.92 in 10.0 mi WSW 15.0 mph - N/A   Overcast
12:15 PM 44.8 °F 37.4 °F 34.0 °F 66% 29.92 in 10.0 mi WSW 17.3 mph 24.2 mph N/A   Overcast
12:35 PM 44.6 °F 36.9 °F 33.3 °F 64% 29.93 in 10.0 mi WSW 18.4 mph 24.2 mph N/A   Overcast
12:55 PM 44.2 °F 37.0 °F 33.8 °F 67% 29.93 in 10.0 mi WSW 16.1 mph 23.0 mph N/A   Overcast
1:15 PM 46.4 °F 38.5 °F 33.4 °F 61% 29.92 in 10.0 mi WSW 21.9 mph 27.6 mph N/A   Overcast
1:35 PM 46.9 °F - 33.4 °F 59% 29.92 in 10.0 mi WSW 18.4 mph 23.0 mph N/A   Overcast
1:55 PM 45.5 °F 38.9 °F 32.7 °F 61% 29.92 in 10.0 mi WSW 15.0 mph - N/A   Overcast
2:15 PM 45.7 °F 38.8 °F 32.9 °F 61% 29.92 in 10.0 mi WSW 16.1 mph - N/A   Overcast
2:35 PM 46.9 °F - 33.1 °F 59% 29.92 in 10.0 mi WSW 21.9 mph 26.5 mph N/A   Overcast
2:55 PM 45.9 °F 38.3 °F 33.1 °F 61% 29.93 in 10.0 mi WSW 19.6 mph - N/A   Overcast
3:15 PM 46.4 °F 41.1 °F 33.1 °F 60% 29.93 in 10.0 mi WSW 11.5 mph - N/A   Mostly Cloudy
3:35 PM 46.6 °F - 32.9 °F 59% 29.94 in 10.0 mi WSW 17.3 mph 24.2 mph N/A   Overcast
3:55 PM 49.1 °F - 33.6 °F 55% 29.94 in 10.0 mi West 20.7 mph 25.3 mph N/A   Overcast
4:15 PM 48.7 °F - 31.8 °F 52% 29.94 in 10.0 mi WSW 11.5 mph 24.2 mph N/A   Mostly Cloudy
4:35 PM 49.5 °F - 32.5 °F 52% 29.94 in 10.0 mi WSW 13.8 mph - N/A   Mostly Cloudy
4:55 PM 49.3 °F - 32.2 °F 52% 29.95 in 10.0 mi WSW 15.0 mph 24.2 mph N/A   Scattered Clouds
5:15 PM 49.3 °F - 32.2 °F 52% 29.95 in 10.0 mi West 15.0 mph 21.9 mph N/A   Scattered Clouds
5:35 PM 49.8 °F - 32.5 °F 51% 29.96 in 10.0 mi WSW 13.8 mph - N/A   Scattered Clouds
5:55 PM 48.4 °F - 33.3 °F 56% 29.97 in 10.0 mi SW 11.5 mph - N/A   Scattered Clouds
6:15 PM 49.1 °F - 33.6 °F 55% 29.97 in 10.0 mi SW 10.4 mph - N/A   Scattered Clouds
6:35 PM 49.6 °F - 32.5 °F 52% 29.97 in 10.0 mi WSW 9.2 mph - N/A   Scattered Clouds
6:55 PM 48.6 °F - 32.7 °F 54% 29.97 in 10.0 mi SW 10.4 mph - N/A   Clear
7:15 PM 48.2 °F - 32.2 °F 54% 29.98 in 10.0 mi WSW 9.2 mph - N/A   Clear
7:35 PM 48.4 °F - 32.2 °F 54% 29.99 in 10.0 mi WSW 8.1 mph - N/A   Scattered Clouds
7:55 PM 47.3 °F - 34.9 °F 62% 30.00 in 10.0 mi SW 4.6 mph - N/A   Scattered Clouds
8:15 PM 46.0 °F 43.1 °F 37.2 °F 71% 30.01 in 10.0 mi SSW 5.8 mph - N/A   Scattered Clouds
8:35 PM 46.0 °F 44.8 °F 36.5 °F 69% 30.02 in 10.0 mi SW 3.5 mph - N/A   Scattered Clouds
8:55 PM 45.1 °F 43.7 °F 35.2 °F 68% 30.03 in 10.0 mi NW 3.5 mph - N/A   Clear
9:15 PM 44.8 °F 43.3 °F 36.1 °F 72% 30.04 in 10.0 mi WSW 3.5 mph - N/A   Scattered Clouds
9:35 PM 45.5 °F 44.2 °F 36.5 °F 71% 30.05 in 10.0 mi SW 3.5 mph - N/A   Scattered Clouds
9:55 PM 45.1 °F 43.7 °F 36.1 °F 71% 30.05 in 10.0 mi WSW 3.5 mph - N/A   Scattered Clouds
10:15 PM 42.6 °F - 36.7 °F 79% 30.06 in 10.0 mi Calm Calm - N/A   Clear
10:35 PM 43.7 °F - 36.3 °F 75% 30.06 in 10.0 mi Calm Calm - N/A   Clear
10:55 PM 42.4 °F - 35.6 °F 77% 30.06 in 10.0 mi Calm Calm - N/A   Clear
11:15 PM 40.1 °F 38.0 °F 35.6 °F 84% 30.07 in 10.0 mi SW 3.5 mph - N/A   Clear
11:35 PM 41.0 °F 38.0 °F 35.1 °F 79% 30.07 in 10.0 mi SW 4.6 mph - N/A   Clear
11:55 PM 40.6 °F 36.7 °F 34.3 °F 78% 30.08 in 10.0 mi SW 5.8 mph - N/A   Clear